Regional Weather Roundup
Issued by NWS Austin/San Antonio, TX

Current Version | Previous Version | Text Only | Print | Product List | Glossary On
Versions: 1 2 3 4 5 6 7 8 9 10 11 12 13 14 15 16 17 18 19 20 21 22 23 24 25 26 27 28 29 30 31 32 33 34 35 36 37 38 39 40 41 42 43 44 45 46 47 48 49 50
000
ASUS44 KEWX 130710
RWREWX
SOUTH TEXAS REGIONAL WEATHER ROUNDUP
NATIONAL WEATHER SERVICE AUSTIN/SAN ANTONIO TX
200 AM CDT SUN JUN 13 2021

NOTE: "FAIR" INDICATED FEW OR NO CLOUDS BELOW 12,000 FEET WITH NO
SIGNIFICANT WEATHER AND/OR OBSTRUCTIONS TO VISIBILITY.

* - THESE STATIONS ARE NOT NWS OR FAA STATIONS...AND ARE NOT SUBJECT
    TO NWS AND FAA QUALITY CONTROL.

TXZ171-172-183>190-130800-
TEXAS HILL COUNTRY AND EDWARDS PLATEAU

CITY           SKY/WX    TMP DP  RH WIND       PRES   REMARKS
JUNCTION       CLEAR     75  68  78 CALM      30.01S
*LLANO         PTCLDY    72  70  94 NW3       29.96R
BURNET         CLEAR     76  70  82 SW5       29.98S
*HORSESHOE BAY CLEAR     77  71  81 S5        29.96S
*LAGO VISTA    CLEAR     78  71  79 SW6       29.97R
*KERRVILLE     CLEAR     74  70  88 SE3       30.01S
*FREDERICKSBRG CLEAR    N/A N/A N/A CALM      30.00S
*ROCKSPRINGS     N/A     75  70  83 MISG      30.08R
*BOERNE        CLEAR     73  70  88 S5        29.99S
*CASTROVILLE   CLEAR     78  76  94 S3        29.98S
HONDO          CLEAR     75  72  90 S6        29.97S
*UVALDE        CLEAR     74  74 100 E3        29.99S
DEL RIO        CLEAR     85  71  63 E13       29.94R HX  90
*LAUGHLIN AFB  CLEAR     82  71  70 SE12      29.95R
*SPOFFORD      CLEAR     79  73  80 E7        29.90R
*EAGLE PASS    CLEAR     82  72  69 E8        29.93S
CARRIZO SPRGS  CLEAR    N/A N/A N/A SE9       29.93S
$$

TXZ173-191>194-202-209-217>225-228-130800-
CENTRAL AND SOUTH CENTRAL TEXAS

CITY           SKY/WX    TMP DP  RH WIND       PRES   REMARKS
GEORGETOWN     CLEAR     75  71  87 CALM      29.97R
*TAYLOR        CLEAR     75 N/A N/A S5        29.94S
AUSTIN/BERGSTM PTCLDY    76  73  91 S6        29.93S
AUSTIN/MABRY   CLEAR     78  71  79 S3        29.94S
*PFLUGERVILLE  CLEAR     77  73  88 CALM      29.93S
SAN MARCOS     CLEAR     77  77 100 SW6       29.95S
NEW BRAUNFELS  CLEAR     76  73  91 SW6       29.93S
*RANDOLPH AFB  CLEAR     78  74  88 SW7       29.94S
*SEGUIN        CLEAR     76  74  91 SW8       29.98S
SAN ANTONIO    PTCLDY    79  72  79 S9        29.96S
STINSON FIELD  CLEAR     80  73  79 S6        29.93F
*KELLY FIELD   CLEAR     76  73  90 S5        29.94S
*PLEASANTON    CLEAR     76  73  91 CALM      29.95S
*KENEDY        CLEAR     77  75  93 S6        29.94F
*LA GRANGE     PTCLDY    79  79  99 S5        29.91S
*GIDDINGS      PTCLDY    77  74  91 CALM      29.95R
*GONZALES      PTCLDY    77  76  96 CALM      29.93S
$$

TXZ163>164-176>182-195>201-210>213-226-227-235-130800-
SOUTHEAST TEXAS

CITY           SKY/WX    TMP DP  RH WIND       PRES   REMARKS
COLLEGE STN    PTCLDY    80  74  81 SE3       29.94R
*BRYAN         PTCLDY    77  76  99 CALM      29.95S
*CALDWELL      PTCLDY    78  75  92 CALM      29.94S
*CROCKETT      PTCLDY    75  75 100 CALM      29.93S
*BRENHAM       PTCLDY    81  77  88 CALM      29.94S
HUNTSVILLE     PTCLDY    83  79  88 S3        29.94S HX  94
CONROE         CLOUDY    81  76  84 W3        29.94S
HOUSTON BUSH   CLOUDY    83  74  74 SW6       29.93R
HOUSTON HOBBY  CLOUDY    82  74  76 W5        29.93R
*HOUSTON SW AP MOCLDY    77  76  96 CALM      29.94R
PEARLAND       MOCLDY    79  75  87 CALM      29.94S
HOUSTON HOOKS  MOCLDY    82  75  79 SW5       29.93S
ELLINGTON FLD  PTCLDY    81  75  83 SW5       29.93R
SUGAR LAND     MOCLDY    79  75  87 CALM      29.93R
*HOUSTON EXEC  MOCLDY    81  77  89 CALM      29.95S
*CLEVELAND MUN MOCLDY    79  78  97 CALM      29.94R
*WHARTON       CLEAR     75  72  91 CALM      29.94R
*COLUMBUS      FAIR      77  75  95 CALM      29.94S
*EAGLE LAKE    PTCLDY    78  76  92 CALM      29.93
$$

TXZ214>216-236>238-130800-
THE UPPER TEXAS COAST

CITY           SKY/WX    TMP DP  RH WIND       PRES   REMARKS
*ORANGE        MOCLDY    81  76  85 W3        29.93F
PORT ARTHUR    MOCLDY    78  77  96 W5        29.91F
GALVESTON      PTCLDY    83  75  77 CALM      29.94R HX  90
ANGLETON       PTCLDY    76  73  91 CALM      29.93S
*BAY CITY      NOT AVBL
PALACIOS       PTCLDY    82  77  84 SW8       29.92S HX  90
$$

TXZ229>234-239>247-130800-
TEXAS COASTAL BEND AND RIO GRANDE PLAINS

CITY           SKY/WX    TMP DP  RH WIND       PRES   REMARKS
VICTORIA       CLEAR     78  74  87 SW7       29.92F
*BEEVILLE      PTCLDY    77  77 100 SW3       29.93F
ROCKPORT       CLEAR     81  77  88 S7        29.91F
*PORT ARANSAS  MOCLDY    81  77  85 S9        29.95F
*PORT LAVACA   CLEAR     78  74  88 SW3       29.92S
*INGLESIDE     CLEAR     81  77  87 SW8       29.91F
CORPUS CHRISTI PTCLDY    76  76 100 CALM      29.94S
CORPUS NAS     PTCLDY    82  76  81 S7        29.93S
*ROBSTOWN      CLEAR     79  77  96 E3        29.94S
ALICE          FOG       75  74  96 SE3       29.93F VSB 3/4
KINGSVILLE NAS CLEAR     77  75  93 E3        29.93S
COTULLA        NOT AVBL
LAREDO         CLEAR     81  72  74 SE10      29.93S
$$

TXZ248>255-130800-
DEEP SOUTH TEXAS

CITY           SKY/WX    TMP DP  RH WIND       PRES   REMARKS
BROWNSVILLE    CLEAR     77  73  87 SE3       29.92F
PORT ISABEL    CLEAR     78  75  90 SE5       29.92F
HARLINGEN      CLEAR     74  74 100 CALM      29.92F
*HEBBRONVILLE  CLEAR     75  68  78 S5        29.96S
MCALLEN        CLEAR     76  73  91 SE5       29.94S
*WESLACO       PTCLDY    76  73  90 CALM      29.92F
FALFURRIAS     CLEAR     74  74  99 SE6       29.92F
EDINBURG       CLEAR     76  75  98 SE5       29.93F
*ZAPATA        CLEAR     80  72  75 SE5       29.95S
$$

TXZ213>215-236>238-242>244-246-247-251-254-255-130800-
CMAN STATIONS

STATION/POSITION TIME  TEMP    WIND        PRES    WAVE
                       AIR SEA DIR/SP/G            HT/PER
                 (UTC) (F)     (DEG/KT/KT) (MB)    (FT/S)
NORTH JETTY/GLS  0624   84 85  240/  8/  9 1012.4
EAGLE POINT      0624   81 88  240/  5/  7 1012.9
MORGANS POINT    0624   82 84  260/  5/  8 1013.4
MISSION/ARANSAS  0600   83     160/ 11     1014.0
PORT O`CONNOR    0624   81 89  210/  9/ 10 1012.7
PORT ARANSAS     0700   81 85  170/ 12/ 14 1013.1
MALAQUITE BEACH  0624   81     140/ 10/ 12   N/A
BAFFIN BAY       0624   81 87  130/  9/ 12 1013.0
PORT ISABEL      0624   80 82  120/  6/  7 1014.5
$$



USA.gov is the U.S. government's official web portal to all federal, state and local government web resources and services.